Location: 相模原市立博物館
(35.5593°N, 139.3931°E)
Time: 03:18:27
(UTC+09:00)

ISS - Visible Passes

Search period start: 22 March 2019 00:00
Search period end: 01 April 2019 00:00
Orbit: 406 x 411 km, 51.6° (Epoch: 21 March)

Date Brightness Start Highest point End Pass type
(mag) Time Alt. Az. Time Alt. Az. Time Alt. Az.
22 Mar -1.5 19:53:46 10° W 19:56:21 21° NNW 19:56:46 20° NNW visible
23 Mar -2.3 19:02:04 10° WSW 19:05:08 35° NW 19:08:12 10° NNE visible
24 Mar -0.7 19:49:55 10° NW 19:51:03 11° NNW 19:52:12 10° N visible
25 Mar -1.0 18:57:27 10° WNW 18:59:42 17° NNW 19:01:56 10° NNE visible
